SCP
0 0 0 0 0 0 0 0 0 0 0 -0 0 0 0 0 0 -0 0 0 0 0 0 0 0 0 -0 -1 -0 0 -0 -1 -2 -1 -1 -1 -1 -0 -1 -1 -0 0 1 1
0 0 0 0 -0 0 0 0 0 0 0 0 0 0 0 0 0 0 0 0 0 0 1 0 0 1 1 1 1 1 1 -1 -1 -0 -0 -1 -0 -0 -0 -0 0 0 1 1
0 0 0 0 -0 0 0 0 0 0 0 0 0 0 0 0 0 0 0 0 0 0 1 1 1 1 2 2 1 2 1 1 0 -0 0 0 0 0 -0 -0 1 1 1 2
0 0 0 0 0 0 0 0 0 0 0 0 0 0 0 0 0 0 0 0 0 1 1 2 1 1 2 3 2 2 2 2 2 0 -0 0 1 1 1 1 1 2 2 2
0 0 0 0 0 0 0 0 0 0 0 0 0 0 0 0 0 0 0 0 0 0 1 2 3 2 2 3 4 3 3 2 2 1 0 1 0 2 2 3 4 3 3 2
0 0 0 0 0 0 0 0 1 0 0 0 0 0 0 1 1 1 0 0 0 0 0 1 2 4 3 3 4 4 3 4 4 4 3 1 2 3 3 3 3 3 3 3
0 0 0 0 0 0 0 0 2 2 1 1 1 1 1 1 0 0 2 0 0 0 0 1 2 7 5 3 2 5 8 10 9 7 7 5 5 5 4 4 4 3 3 3
0 0 0 1 1 0 2 3 2 2 1 1 1 1 1 0 0 0 1 4 2 0 1 3 4 9 9 8 7 10 17 14 15 14 13 10 7 7 5 3 3 4 3 2
0 1 2 1 2 2 3 2 3 2 4 1 1 1 3 3 2 1 2 6 11 18 27 24 18 12 18 27 24 19 18 18 17 17 14 9 7 5 3 2 3 2 3 2
0 1 0 0 0 2 6 4 4 4 3 2 2 3 3 4 7 8 10 10 11 13 14 18 26 28 30 30 25 18 20 19 13 11 8 6 5 3 2 2 2 2 2 1
0 1 2 2 0 0 1 2 1 1 1 1 1 1 2 4 6 8 8 10 13 18 18 16 14 18 25 26 25 18 13 11 9 4 1 0 0 1 1 0 1 1 1 1
1 0 0 0 0 1 1 2 0 0 0 0 0 0 0 1 5 5 7 7 7 12 14 17 15 12 12 17 15 11 7 6 2 1 0 0 0 0 0 0 0 0 0 1
0 0 0 0 0 0 0 0 0 0 0 0 0 0 0 0 0 3 2 3 3 4 7 7 8 10 9 6 5 4 3 3 1 0 0 0 0 0 0 0 0 0 0 0
0 0 0 0 0 0 0 0 0 0 0 0 0 0 0 0 0 0 1 0 2 2 3 5 5 5 4 3 3 2 2 2 2 1 0 0 0 0 0 0 0 0 0 0
0 0 0 0 0 0 0 0 0 0 0 0 0 0 0 0 0 1 1 1 1 1 1 1 2 2 1 2 1 1 1 1 0 0 0 0 0 0 0 0 0 0 0 0
0 0 0 0 0 0 0 0 0 0 0 0 0 0 0 0 0 1 1 1 1 1 1 1 1 1 1 2 1 0 0 0 1 0 0 1 0 0 0 0 0 0 0 0
0 0 0 0 0 0 0 0 0 0 0 0 0 0 0 0 0 0 0 1 0 0 1 1 1 1 1 1 1 0 0 0 0 0 0 0 0 0 0 0 0 0 0 0
0 0 0 0 0 0 0 0 0 0 0 -0 0 0 0 0 0 0 0 0 0 0 0 0 0 0 0 0 0 0 0 0 0 0 0 0 0 0 0 0 0 0 0 0
0 -0 0 0 0 0 0 0 0 0 0 0 0 0 0 0 0 0 0 0 0 0 0 0 0 0 0 0 0 0 0 0 0 0 0 0 0 0 0 0 0 0 0 0
-0 -0 0 0 -0 -0 0 0 -0 0 0 0 0 0 0 0 0 0 0 0 0 0 0 0 0 0 0 0 0 0 0 0 0 0 0 0 0 0 0 0 0 0 0 0
0 0 -0 -0 -0 0 0 0 -0 -0 -0 -0 0 0 0 0 0 0 0 0 0 0 0 0 0 0 0 0 0 0 -0 0 0 0 0 0 0 0 0 0 0 0 0 0
0 0 -0 -0 -0 -0 -0 -0 0 0 0 0 0 0 0 0 0 0 0 0 0 0 0 0 0 0 0 0 0 -0 0 -0 0 0 0 0 0 0 0 0 0 0 0 0
-0 -0 0 -0 -0 -0 -0 0 -0 0 0 0 0 0 0 0 0 0 0 0 0 0 0 0 0 0 0 0 0 0 0 0 0 0 0 0 0 0 0 0 0 0 0 0
0 0 -0 0 -0 -0 0 0 0 0 0 0 0 0 -0 -0 0 -0 -0 0 0 0 0 0 0 0 0 0 0 0 0 0 0 0 0 0 0 0 0 0 0 0 0 0
-0 -0 -0 0 0 0 0 -0 0 0 0 0 0 0 0 0 0 -0 -0 0 0 0 0 0 0 0 0 0 0 0 0 0 0 0 0 0 0 0 0 0 0 0 0 0
0 0 0 -0 0 0 0 0 0 0 0 0 0 0 0 0 0 0 0 0 0 0 0 0 0 0 0 0 0 0 0 0 0 0 0 0 0 0 0 0 0 0 0 0
0 0 0 0 0 0 0 0 0 0 0 0 0 0 0 0 0 0 0 0 0 0 0 0 0 0 0 0 0 0 0 0 0 0 0 0 0 0 0 0 0 0 0 0
Wind_Speed_500mb
54 34 27 48 28 52 45 43 25 28 29 27 25 19 21 64 63 64 47 36 58 92 104 110 112 115 110 111 113 102 97 94 94 92 91 88 89 90 86 90 90 88 87 87
36 58 53 51 35 41 56 46 39 26 30 9 17 34 34 37 71 25 17 44 48 76 112 112 112 114 111 110 111 108 96 90 88 92 93 91 90 93 91 84 85 90 88 85
27 18 29 45 61 43 23 33 37 36 29 14 18 7 10 24 40 59 54 34 48 48 65 86 104 95 107 109 113 111 104 95 88 89 89 91 91 92 91 83 77 80 81 80
11 13 21 20 24 34 29 16 31 21 21 20 19 39 25 19 12 12 30 44 46 56 54 61 76 80 86 110 116 114 111 105 96 90 87 85 86 90 84 76 74 74 75 73
10 19 3 15 14 10 14 22 10 14 18 17 37 32 20 19 38 42 52 45 28 24 50 53 63 68 84 106 117 115 114 110 103 97 89 88 90 86 76 70 71 68 69 65
5 13 32 6 12 13 6 6 10 22 19 18 13 6 7 30 18 8 13 48 48 55 42 47 57 66 68 86 109 116 115 114 109 104 97 96 95 81 72 69 64 62 56 56
9 9 9 4 9 16 18 14 12 29 23 19 10 5 19 31 36 30 22 22 60 78 66 53 57 64 67 75 98 100 114 107 105 97 96 96 87 79 72 66 63 58 56 52
5 7 5 15 6 16 11 17 27 20 19 18 13 11 15 23 35 39 13 15 23 48 58 68 64 61 71 81 78 94 102 82 85 80 85 86 79 74 63 62 56 56 51 46
19 6 4 31 17 43 30 30 19 13 19 11 24 27 41 35 27 12 6 10 13 27 36 48 61 69 73 78 83 78 78 72 69 69 70 70 72 64 55 52 48 38 36 38
17 13 5 13 12 49 59 51 49 48 53 52 59 56 51 46 40 34 26 19 21 26 28 28 40 62 71 76 71 66 71 68 66 71 69 65 58 48 45 42 39 37 36 34
12 30 27 37 16 22 23 29 44 50 56 61 62 60 55 51 44 36 30 33 39 45 47 43 36 42 54 60 64 70 72 71 66 66 66 56 48 41 34 31 30 29 27 24
5 16 7 16 57 35 57 59 49 55 60 58 55 49 44 52 45 38 30 16 23 37 43 43 47 50 54 59 65 70 57 55 56 57 52 47 42 44 34 27 29 29 24 22
6 32 35 65 71 52 33 78 68 71 60 59 56 48 47 44 36 27 21 17 15 14 26 37 37 45 48 47 40 36 37 45 52 53 47 43 37 38 41 39 35 31 27 21
50 38 54 62 43 63 49 58 71 72 66 63 57 52 48 48 42 28 23 20 13 14 21 32 31 27 27 35 42 46 47 35 40 40 37 37 33 33 34 37 41 37 30 25
32 37 51 45 52 46 46 54 67 72 65 53 48 53 45 46 42 41 25 27 27 29 27 39 45 39 37 38 42 43 43 47 38 42 45 42 38 29 28 31 28 23 26 27
39 46 46 35 44 24 15 28 59 67 60 56 52 40 34 30 33 38 35 33 29 36 34 35 31 28 38 45 45 46 40 29 29 37 38 38 21 23 39 40 29 25 25 24
54 35 42 48 39 37 32 30 40 36 23 39 45 37 33 17 24 29 35 30 33 30 29 29 26 25 34 32 31 35 38 36 31 37 34 34 36 34 49 38 31 22 19 17
35 33 36 32 29 30 35 36 38 45 41 31 14 24 23 19 20 13 18 28 24 19 22 21 17 16 18 22 25 18 17 23 26 29 32 36 28 36 27 43 39 34 27 25
33 36 34 33 33 36 35 37 38 42 46 30 22 25 24 26 22 18 15 8 6 5 5 8 13 10 10 8 9 8 24 27 33 28 24 36 36 34 32 37 32 31 29 26
36 37 39 36 33 36 38 38 35 38 38 33 39 33 27 19 14 21 17 18 14 9 7 9 3 5 13 11 17 9 15 26 27 37 39 32 19 20 14 19 28 30 29 28
52 57 44 44 45 41 38 33 32 37 34 37 36 34 31 29 27 20 26 33 30 28 25 16 9 17 15 14 24 9 25 28 27 24 19 21 21 26 19 16 19 20 21 21
49 48 40 36 35 36 32 29 30 26 24 31 39 33 29 29 29 39 31 28 24 26 23 18 13 13 7 14 2 32 14 13 14 22 21 24 18 17 18 20 19 18 17 15
35 32 36 33 28 23 25 25 19 25 26 30 34 32 33 32 27 21 25 24 20 15 15 19 19 11 6 17 24 12 17 9 7 13 12 16 18 16 9 15 20 21 23 21
43 32 18 25 18 27 17 22 24 19 30 30 26 20 21 27 27 24 23 19 17 8 16 18 21 11 2 9 13 16 8 7 8 8 10 14 13 10 11 9 6 24 28 24
38 43 40 31 43 38 24 26 28 16 21 29 30 40 15 20 23 10 20 20 19 14 18 9 18 20 18 19 26 26 14 1 15 18 19 18 19 17 15 13 20 19 17 19
38 41 40 42 47 43 40 37 28 28 28 21 29 33 24 24 22 11 20 19 20 32 28 13 11 13 19 26 24 17 14 7 5 11 15 10 14 15 16 16 19 26 21 20
41 40 39 37 38 33 39 41 34 37 23 22 24 26 17 8 7 6 13 20 17 20 17 35 26 18 14 16 32 31 22 11 4 13 9 9 4 11 19 19 20 25 28 29
Wind_Direction_500mb
214 217 227 241 220 203 210 210 205 234 233 241 238 200 187 175 202 228 251 211 227 186 190 195 195 204 208 210 209 214 217 222 227 229 231 231 232 236 232 232 236 238 240 243
207 210 223 244 245 225 211 216 227 233 248 206 253 223 190 216 189 202 249 188 189 181 190 198 203 205 208 211 211 209 217 222 225 227 230 231 232 234 238 234 234 238 240 244
206 182 207 231 234 246 239 211 202 221 237 231 266 228 194 215 230 198 256 230 192 189 184 200 204 208 211 214 211 210 214 220 222 225 227 231 232 234 235 237 237 239 242 244
184 131 213 247 206 225 242 245 209 200 178 198 203 238 233 232 266 232 226 256 234 202 210 195 199 211 219 215 213 213 215 218 221 224 227 229 231 233 233 236 238 239 241 245
178 192 325 270 249 199 202 253 232 185 209 213 223 217 232 248 224 222 213 253 241 228 211 211 208 204 214 213 214 213 215 218 222 225 224 226 227 228 229 231 232 237 242 247
225 171 215 201 228 264 71 197 86 96 86 81 66 86 228 356 9 28 270 227 229 229 262 222 216 213 209 214 210 211 216 219 220 223 224 225 225 224 225 227 230 234 237 244
190 189 281 100 278 248 166 210 75 91 90 80 100 141 336 323 312 305 329 247 222 222 232 250 225 215 214 215 210 218 217 216 218 221 222 223 222 221 222 222 225 229 231 239
257 158 218 337 231 181 167 97 95 79 87 87 55 14 336 320 309 307 262 259 268 232 231 232 237 218 214 215 222 211 210 210 209 213 214 214 214 214 219 220 217 216 228 226
310 115 317 64 77 42 87 92 51 69 56 104 46 50 61 57 50 79 111 120 145 182 203 216 219 222 221 215 208 203 198 202 202 202 201 203 203 215 210 206 207 216 219 229
313 34 73 261 70 59 64 47 82 82 80 97 86 75 68 76 76 81 99 124 152 174 166 172 194 200 203 193 193 186 183 188 191 194 189 193 214 207 202 205 200 209 213 221
279 13 352 32 194 178 143 68 66 79 88 88 92 82 81 74 71 80 97 119 137 148 157 158 163 164 169 172 174 175 178 181 191 193 191 186 182 182 191 198 205 211 214 198
16 337 303 352 38 80 113 107 94 85 78 77 86 87 90 80 79 82 80 111 130 121 127 129 145 149 159 167 173 177 182 190 186 181 176 177 181 170 174 185 186 180 194 205
144 84 75 66 72 53 31 95 92 83 78 77 72 80 83 85 80 80 81 78 62 107 127 146 153 147 155 170 175 186 193 187 181 175 174 180 176 178 173 167 176 176 178 213
145 110 68 69 59 56 40 65 85 82 74 74 73 72 77 80 79 73 72 87 105 111 135 125 131 143 144 145 166 169 166 175 184 162 169 159 160 166 174 175 179 171 183 185
90 118 111 108 99 79 58 78 80 77 67 65 68 59 62 63 64 65 91 91 103 90 92 98 100 107 121 127 123 124 131 139 155 153 148 142 150 157 162 190 181 161 195 196
118 101 110 109 99 129 132 76 85 82 82 74 59 57 56 61 61 76 84 87 91 87 100 94 104 99 113 123 128 122 123 143 160 161 158 143 154 175 182 184 163 143 169 175
96 116 109 97 108 98 90 76 69 65 101 80 75 62 46 46 60 71 87 89 83 91 93 93 88 100 114 110 131 145 148 146 136 154 157 164 173 189 204 199 185 178 181 185
97 99 100 96 98 92 75 67 64 62 70 69 45 79 64 31 41 75 101 96 93 110 104 90 88 115 127 117 131 129 145 159 181 188 198 192 189 192 218 209 200 189 190 180
113 108 102 102 84 86 77 74 61 69 75 72 92 79 83 68 49 45 61 183 110 85 177 121 110 106 44 16 96 151 164 167 180 194 208 202 198 202 187 199 201 201 200 193
100 94 87 80 82 74 70 74 74 70 67 70 80 79 82 101 94 83 79 90 76 70 89 33 59 252 217 237 277 228 223 176 170 185 185 181 182 197 184 172 171 191 202 202
81 74 82 82 80 76 68 67 70 70 72 66 57 57 71 84 86 100 92 91 75 98 96 112 140 153 175 157 170 188 193 188 188 204 182 187 199 208 213 219 204 198 194 193
83 83 84 77 84 82 69 66 63 70 74 68 70 79 80 84 80 78 92 85 74 85 98 96 90 86 72 94 66 161 133 124 174 178 182 199 205 216 229 207 215 221 218 232
72 74 70 76 72 77 70 63 68 52 62 73 70 81 70 74 70 75 79 66 66 76 60 59 54 44 147 97 87 73 97 129 122 176 193 198 201 196 199 230 247 230 239 238
69 68 55 55 62 63 53 49 36 45 65 77 64 52 62 75 69 74 70 56 27 23 39 53 52 35 211 99 41 40 345 308 224 207 212 190 171 203 247 251 254 228 242 254
82 74 65 66 65 53 32 66 54 59 50 42 59 64 95 60 62 80 36 29 21 39 16 24 55 31 58 46 17 2 356 122 213 211 210 195 208 213 210 234 248 247 258 261
63 57 57 50 46 49 40 34 51 48 62 58 43 44 37 35 42 72 48 53 49 47 39 62 22 39 26 24 2 36 37 32 57 217 259 264 242 243 251 246 238 243 250 258
52 54 49 38 26 21 25 20 25 23 15 21 20 7 1 357 52 55 47 65 60 56 42 35 28 25 20 14 30 19 18 14 278 277 310 250 232 209 238 248 239 221 240 244
Wind_Speed_850mb
54 34 27 48 28 52 45 43 25 28 29 27 25 19 21 64 63 64 47 36 58 92 104 110 112 115 110 111 113 102 97 94 94 92 91 88 89 90 86 90 90 88 87 87
36 58 53 51 35 41 56 46 39 26 30 9 17 34 34 37 71 25 17 44 48 76 112 112 112 114 111 110 111 108 96 90 88 92 93 91 90 93 91 84 85 90 88 85
27 18 29 45 61 43 23 33 37 36 29 14 18 7 10 24 40 59 54 34 48 48 65 86 104 95 107 109 113 111 104 95 88 89 89 91 91 92 91 83 77 80 81 80
11 13 21 20 24 34 29 16 31 21 21 20 19 39 25 19 12 12 30 44 46 56 54 61 76 80 86 110 116 114 111 105 96 90 87 85 86 90 84 76 74 74 75 73
10 19 3 15 14 10 14 22 10 14 18 17 37 32 20 19 38 42 52 45 28 24 50 53 63 68 84 106 117 115 114 110 103 97 89 88 90 86 76 70 71 68 69 65
5 13 32 6 12 13 6 6 10 22 19 18 13 6 7 30 18 8 13 48 48 55 42 47 57 66 68 86 109 116 115 114 109 104 97 96 95 81 72 69 64 62 56 56
9 9 9 4 9 16 18 14 12 29 23 19 10 5 19 31 36 30 22 22 60 78 66 53 57 64 67 75 98 100 114 107 105 97 96 96 87 79 72 66 63 58 56 52
5 7 5 15 6 16 11 17 27 20 19 18 13 11 15 23 35 39 13 15 23 48 58 68 64 61 71 81 78 94 102 82 85 80 85 86 79 74 63 62 56 56 51 46
19 6 4 31 17 43 30 30 19 13 19 11 24 27 41 35 27 12 6 10 13 27 36 48 61 69 73 78 83 78 78 72 69 69 70 70 72 64 55 52 48 38 36 38
17 13 5 13 12 49 59 51 49 48 53 52 59 56 51 46 40 34 26 19 21 26 28 28 40 62 71 76 71 66 71 68 66 71 69 65 58 48 45 42 39 37 36 34
12 30 27 37 16 22 23 29 44 50 56 61 62 60 55 51 44 36 30 33 39 45 47 43 36 42 54 60 64 70 72 71 66 66 66 56 48 41 34 31 30 29 27 24
5 16 7 16 57 35 57 59 49 55 60 58 55 49 44 52 45 38 30 16 23 37 43 43 47 50 54 59 65 70 57 55 56 57 52 47 42 44 34 27 29 29 24 22
6 32 35 65 71 52 33 78 68 71 60 59 56 48 47 44 36 27 21 17 15 14 26 37 37 45 48 47 40 36 37 45 52 53 47 43 37 38 41 39 35 31 27 21
50 38 54 62 43 63 49 58 71 72 66 63 57 52 48 48 42 28 23 20 13 14 21 32 31 27 27 35 42 46 47 35 40 40 37 37 33 33 34 37 41 37 30 25
32 37 51 45 52 46 46 54 67 72 65 53 48 53 45 46 42 41 25 27 27 29 27 39 45 39 37 38 42 43 43 47 38 42 45 42 38 29 28 31 28 23 26 27
39 46 46 35 44 24 15 28 59 67 60 56 52 40 34 30 33 38 35 33 29 36 34 35 31 28 38 45 45 46 40 29 29 37 38 38 21 23 39 40 29 25 25 24
54 35 42 48 39 37 32 30 40 36 23 39 45 37 33 17 24 29 35 30 33 30 29 29 26 25 34 32 31 35 38 36 31 37 34 34 36 34 49 38 31 22 19 17
35 33 36 32 29 30 35 36 38 45 41 31 14 24 23 19 20 13 18 28 24 19 22 21 17 16 18 22 25 18 17 23 26 29 32 36 28 36 27 43 39 34 27 25
33 36 34 33 33 36 35 37 38 42 46 30 22 25 24 26 22 18 15 8 6 5 5 8 13 10 10 8 9 8 24 27 33 28 24 36 36 34 32 37 32 31 29 26
36 37 39 36 33 36 38 38 35 38 38 33 39 33 27 19 14 21 17 18 14 9 7 9 3 5 13 11 17 9 15 26 27 37 39 32 19 20 14 19 28 30 29 28
52 57 44 44 45 41 38 33 32 37 34 37 36 34 31 29 27 20 26 33 30 28 25 16 9 17 15 14 24 9 25 28 27 24 19 21 21 26 19 16 19 20 21 21
49 48 40 36 35 36 32 29 30 26 24 31 39 33 29 29 29 39 31 28 24 26 23 18 13 13 7 14 2 32 14 13 14 22 21 24 18 17 18 20 19 18 17 15
35 32 36 33 28 23 25 25 19 25 26 30 34 32 33 32 27 21 25 24 20 15 15 19 19 11 6 17 24 12 17 9 7 13 12 16 18 16 9 15 20 21 23 21
43 32 18 25 18 27 17 22 24 19 30 30 26 20 21 27 27 24 23 19 17 8 16 18 21 11 2 9 13 16 8 7 8 8 10 14 13 10 11 9 6 24 28 24
38 43 40 31 43 38 24 26 28 16 21 29 30 40 15 20 23 10 20 20 19 14 18 9 18 20 18 19 26 26 14 1 15 18 19 18 19 17 15 13 20 19 17 19
38 41 40 42 47 43 40 37 28 28 28 21 29 33 24 24 22 11 20 19 20 32 28 13 11 13 19 26 24 17 14 7 5 11 15 10 14 15 16 16 19 26 21 20
41 40 39 37 38 33 39 41 34 37 23 22 24 26 17 8 7 6 13 20 17 20 17 35 26 18 14 16 32 31 22 11 4 13 9 9 4 11 19 19 20 25 28 29
Wind_Direction_850mb
214 217 227 241 220 203 210 210 205 234 233 241 238 200 187 175 202 228 251 211 227 186 190 195 195 204 208 210 209 214 217 222 227 229 231 231 232 236 232 232 236 238 240 243
207 210 223 244 245 225 211 216 227 233 248 206 253 223 190 216 189 202 249 188 189 181 190 198 203 205 208 211 211 209 217 222 225 227 230 231 232 234 238 234 234 238 240 244
206 182 207 231 234 246 239 211 202 221 237 231 266 228 194 215 230 198 256 230 192 189 184 200 204 208 211 214 211 210 214 220 222 225 227 231 232 234 235 237 237 239 242 244
184 131 213 247 206 225 242 245 209 200 178 198 203 238 233 232 266 232 226 256 234 202 210 195 199 211 219 215 213 213 215 218 221 224 227 229 231 233 233 236 238 239 241 245
178 192 325 270 249 199 202 253 232 185 209 213 223 217 232 248 224 222 213 253 241 228 211 211 208 204 214 213 214 213 215 218 222 225 224 226 227 228 229 231 232 237 242 247
225 171 215 201 228 264 71 197 86 96 86 81 66 86 228 356 9 28 270 227 229 229 262 222 216 213 209 214 210 211 216 219 220 223 224 225 225 224 225 227 230 234 237 244
190 189 281 100 278 248 166 210 75 91 90 80 100 141 336 323 312 305 329 247 222 222 232 250 225 215 214 215 210 218 217 216 218 221 222 223 222 221 222 222 225 229 231 239
257 158 218 337 231 181 167 97 95 79 87 87 55 14 336 320 309 307 262 259 268 232 231 232 237 218 214 215 222 211 210 210 209 213 214 214 214 214 219 220 217 216 228 226
310 115 317 64 77 42 87 92 51 69 56 104 46 50 61 57 50 79 111 120 145 182 203 216 219 222 221 215 208 203 198 202 202 202 201 203 203 215 210 206 207 216 219 229
313 34 73 261 70 59 64 47 82 82 80 97 86 75 68 76 76 81 99 124 152 174 166 172 194 200 203 193 193 186 183 188 191 194 189 193 214 207 202 205 200 209 213 221
279 13 352 32 194 178 143 68 66 79 88 88 92 82 81 74 71 80 97 119 137 148 157 158 163 164 169 172 174 175 178 181 191 193 191 186 182 182 191 198 205 211 214 198
16 337 303 352 38 80 113 107 94 85 78 77 86 87 90 80 79 82 80 111 130 121 127 129 145 149 159 167 173 177 182 190 186 181 176 177 181 170 174 185 186 180 194 205
144 84 75 66 72 53 31 95 92 83 78 77 72 80 83 85 80 80 81 78 62 107 127 146 153 147 155 170 175 186 193 187 181 175 174 180 176 178 173 167 176 176 178 213
145 110 68 69 59 56 40 65 85 82 74 74 73 72 77 80 79 73 72 87 105 111 135 125 131 143 144 145 166 169 166 175 184 162 169 159 160 166 174 175 179 171 183 185
90 118 111 108 99 79 58 78 80 77 67 65 68 59 62 63 64 65 91 91 103 90 92 98 100 107 121 127 123 124 131 139 155 153 148 142 150 157 162 190 181 161 195 196
118 101 110 109 99 129 132 76 85 82 82 74 59 57 56 61 61 76 84 87 91 87 100 94 104 99 113 123 128 122 123 143 160 161 158 143 154 175 182 184 163 143 169 175
96 116 109 97 108 98 90 76 69 65 101 80 75 62 46 46 60 71 87 89 83 91 93 93 88 100 114 110 131 145 148 146 136 154 157 164 173 189 204 199 185 178 181 185
97 99 100 96 98 92 75 67 64 62 70 69 45 79 64 31 41 75 101 96 93 110 104 90 88 115 127 117 131 129 145 159 181 188 198 192 189 192 218 209 200 189 190 180
113 108 102 102 84 86 77 74 61 69 75 72 92 79 83 68 49 45 61 183 110 85 177 121 110 106 44 16 96 151 164 167 180 194 208 202 198 202 187 199 201 201 200 193
100 94 87 80 82 74 70 74 74 70 67 70 80 79 82 101 94 83 79 90 76 70 89 33 59 252 217 237 277 228 223 176 170 185 185 181 182 197 184 172 171 191 202 202
81 74 82 82 80 76 68 67 70 70 72 66 57 57 71 84 86 100 92 91 75 98 96 112 140 153 175 157 170 188 193 188 188 204 182 187 199 208 213 219 204 198 194 193
83 83 84 77 84 82 69 66 63 70 74 68 70 79 80 84 80 78 92 85 74 85 98 96 90 86 72 94 66 161 133 124 174 178 182 199 205 216 229 207 215 221 218 232
72 74 70 76 72 77 70 63 68 52 62 73 70 81 70 74 70 75 79 66 66 76 60 59 54 44 147 97 87 73 97 129 122 176 193 198 201 196 199 230 247 230 239 238
69 68 55 55 62 63 53 49 36 45 65 77 64 52 62 75 69 74 70 56 27 23 39 53 52 35 211 99 41 40 345 308 224 207 212 190 171 203 247 251 254 228 242 254
82 74 65 66 65 53 32 66 54 59 50 42 59 64 95 60 62 80 36 29 21 39 16 24 55 31 58 46 17 2 356 122 213 211 210 195 208 213 210 234 248 247 258 261
63 57 57 50 46 49 40 34 51 48 62 58 43 44 37 35 42 72 48 53 49 47 39 62 22 39 26 24 2 36 37 32 57 217 259 264 242 243 251 246 238 243 250 258
52 54 49 38 26 21 25 20 25 23 15 21 20 7 1 357 52 55 47 65 60 56 42 35 28 25 20 14 30 19 18 14 278 277 310 250 232 209 238 248 239 221 240 244